Regional Weather Roundup
Issued by NWS Charleston, WV

Home | Current Version | Previous Version | Graphics & Text | Print | Product List | Glossary On
Versions: 1 2 3 4 5 6 7 8 9 10 11 12 13 14 15 16 17 18 19 20 21 22 23 24 25 26 27 28 29 30 31 32 33 34 35 36 37 38 39 40 41 42 43 44 45 46 47 48 49 50
000
ASUS41 KRLX 302310
RWRRLX
West Virginia Regional Weather Roundup
National Weather Service Charleston WV
700 PM EDT SUN AUG 30 2015

Note: "fair" indicates few or no clouds below 12,000 feet with no
significant weather and/or obstructions to visibility.

WVZ003-310000-
Northern Panhandle of West Virginia

CITY           SKY/WX    TMP DP  RH WIND       PRES   REMARKS
WHEELING       PTSUNNY   76  63  64 SW5       30.08S
$$

WVZ009-310000-
Northwest West Virginia

CITY           SKY/WX    TMP DP  RH WIND       PRES   REMARKS
PARKERSBURG    PTSUNNY   81  66  60 SW6       30.10S
$$

WVZ006-310000-
Western West Virginia

CITY           SKY/WX    TMP DP  RH WIND       PRES   REMARKS
HUNTINGTON     PTSUNNY   81  66  60 S6        30.08S
$$

WVZ015-310000-
West Central West Virginia

CITY           SKY/WX    TMP DP  RH WIND       PRES   REMARKS
CHARLESTON     PTSUNNY   81  67  62 SW6       30.10S
$$

WVZ022-031-310000-
North Central West Virginia

CITY           SKY/WX    TMP DP  RH WIND       PRES   REMARKS
CLARKSBURG     CLOUDY    81  66  60 SW8       30.10R
MORGANTOWN     LGT RAIN  78  63  59 W3        30.11S
$$

WVZ025-035-042-045-310000-
Southern West Virginia

CITY           SKY/WX    TMP DP  RH WIND       PRES   REMARKS
BECKLEY        CLOUDY    74  62  66 CALM      30.19R
LOGAN            N/A     77  68  73 CALM      30.14S
BLUEFIELD      PTSUNNY   76  61  59 S3        30.21S
LEWISBURG      MOCLDY    76  62  61 CALM      30.19R
$$

WVZ047-310000-
Northern Mountains of West Virginia

CITY           SKY/WX    TMP DP  RH WIND       PRES   REMARKS
ELKINS         MOCLDY    76  64  66 CALM      30.15S
$$

WVZ052-310000-
Eastern Panhandle of West Virginia

CITY           SKY/WX    TMP DP  RH WIND       PRES   REMARKS
MARTINSBURG    MOCLDY    81  65  58 S10       30.06R
PETERSBURG     CLOUDY    82  62  52 SW5       30.09R
$$



USA.gov is the U.S. government's official web portal to all federal, state and local government web resources and services.